Simultaneous Nadir Overpasses (SNOs) Predictions

Prediction of SNOs between GOES-16 and NOAA-19 Satellite Orbit:

Table of predicted SNOs for the next 14.0 days since TLE Epoch: 11/18/2023
Index Date Time (GOES-16) GOES-16 Lat,Lon NOAA-19 Lat,Lon Distance(km) Time Diff (sec)
1 11/20/2023 14:06:25 -0.04, -75.23 0.50, -77.66 276.69 80
2 11/21/2023 13:51:37 -0.04, -75.24 -0.16, -74.70 61.32 80
3 11/22/2023 13:39:29 -0.04, -75.25 -0.87, -71.76 399.52 80
4 11/24/2023 02:14:15 0.04, -75.25 -0.95, -79.45 479.57 80
5 11/25/2023 02:02:07 0.04, -75.26 -0.25, -76.50 141.15 80
6 11/26/2023 01:47:20 0.03, -75.28 0.46, -73.55 197.42 80
7 11/28/2023 14:09:44 -0.03, -75.33 0.63, -78.24 331.48 80
8 11/29/2023 13:57:35 -0.02, -75.35 -0.04, -75.28 7.66 80
9 11/30/2023 13:42:47 -0.02, -75.37 -0.71, -72.33 346.94 80
